Regional Weather Roundup
Issued by NWS

Home | Current Version | Previous Version | Graphics & Text | Print | Product List | Glossary On
Versions: 1 2 3 4 5 6 7 8 9 10 11 12 13 14 15 16 17 18 19 20 21 22 23 24 25 26 27 28 29 30 31 32 33 34 35 36 37 38 39 40 41 42 43 44 45 46 47 48 49 50
566
ASUS43 KLMK 101202
RWRKY
KENTUCKY REGIONAL WEATHER ROUNDUP
NATIONAL WEATHER SERVICE LOUISVILLE KY
700 AM EST SAT DEC 10 2016

NOTE "FAIR" INDICATES FEW OR NO CLOUDS BELOW 12,000 FEET
WITH NO SIGNIFICANT WEATHER AND/OR OBSTRUCTIONS TO VISIBILITY.

KYZ001>023-026-027-061>063-070>075-101300-
WESTERN AND SOUTH CENTRAL KENTUCKY

CITY           SKY/WX    TMP DP  RH WIND       PRES   REMARKS
PADUCAH        CLEAR     15  12  88 CALM      30.59F
HENDERSON      CLOUDY    25  18  74 CALM      30.61S
OWENSBORO      CLOUDY    21  18  88 CALM      30.62R
HOPKINSVILLE   CLOUDY    18  16  90 CALM      30.59R
BOWLING GREEN  CLEAR     17  12  80 CALM      30.61R
GLASGOW        NOT AVBL
$$

KYZ024-025-028>034-038-045-046-053-101300-
NORTH CENTRAL KENTUCKY

CITY           SKY/WX    TMP DP  RH WIND       PRES   REMARKS
LOUISVILLE/SDF PTCLDY    21  14  74 CALM      30.60R
LOUISVILLE/LOU CLEAR     21  15  78 CALM      30.60R
FORT KNOX      MOCLDY    15  11  85 CALM      30.56R
$$

KYZ035>037-039>044-047>052-055>060-089>105-101300-
NORTHEAST KENTUCKY

CITY           SKY/WX    TMP DP  RH WIND       PRES   REMARKS
LEXINGTON      CLEAR     17  12  80 S6        30.55R WCI   9
COVINGTON      CLOUDY    20  16  84 W3        30.54R
FRANKFORT      CLEAR     15  10  80 CALM      30.56R
$$

KYZ054-064>069-076>088-106>120-101300-
SOUTHEAST KENTUCKY

CITY           SKY/WX    TMP DP  RH WIND       PRES   REMARKS
JACKSON        CLOUDY    18  15  88 CALM      30.53R
LONDON         CLEAR     13   9  84 CALM      30.55R
SOMERSET       CLEAR     12  12 100 CALM      30.59R
MIDDLESBORO    CLEAR     14  12  92 CALM      30.57R
MONTICELLO     MOSUNNY   12   9  87 VRB7      30.59R WCI   1
$$





USA.gov is the U.S. government's official web portal to all federal, state and local government web resources and services.